WA1UHF Weather Reports


Display with metric or nautical units.
time (UTC)temp
F
wind
direction
speed
MPH
gust
MPH
rain 1hr
in
rain 24hr
in
rain mn
in
humidity
%
barometer
mb
20260508034546 44 336 0.0 2.0 0.00 0.16 0.12 63 1007.2
20260508033041 45 0 0.0 2.0 0.00 0.16 0.12 58 1007.3
20260508031549 45 0 0.0 0.0 0.00 0.16 0.12 55 1007.2
20260508030047 46 0 1.0 5.0 0.00 0.16 0.12 57 1007.2
20260508024546 46 0 0.0 3.0 0.00 0.18 0.12 56 1006.9
20260508023046 44 272 1.0 6.0 0.00 0.18 0.12 58 1006.9
20260508021552 44 0 0.0 2.0 0.00 0.18 0.12 70 1006.9
20260508020041 44 0 0.0 0.0 0.00 0.18 0.12 67 1006.9
20260508014546 46 0 0.0 0.0 0.00 0.24 0.12 66 1006.9
20260508013046 47 338 0.0 2.0 0.00 0.24 0.12 62 1006.7
20260508011545 48 0 1.0 3.0 0.00 0.24 0.12 59 1006.6
20260508010044 49 0 0.0 3.0 0.00 0.24 0.12 59 1006.6
20260508004542 51 0 0.0 3.0 0.00 0.24 0.12 52 1006.4
20260508003046 52 0 2.0 5.0 0.00 0.24 0.12 50 1006.0
20260508001546 53 50 1.0 5.0 0.00 0.24 0.12 47 1005.9
20260508000045 53 319 0.0 6.0 0.00 0.24 0.12 44 1005.6
20260507234550 54 60 2.0 10.0 0.00 0.24 0.12 42 1005.4
20260507233041 55 340 1.0 8.0 0.00 0.24 0.12 43 1005.0
20260507231553 56 29 2.0 11.0 0.00 0.24 0.12 42 1004.8
20260507230051 57 340 3.0 10.0 0.00 0.24 0.12 41 1004.5
20260507224545 57 14 2.0 9.0 0.00 0.25 0.12 41 1004.2
20260507223044 58 302 2.0 10.0 0.00 0.25 0.12 41 1003.9
20260507221547 58 286 2.0 9.0 0.00 0.25 0.12 42 1003.8
20260507220046 58 232 4.0 9.0 0.00 0.25 0.12 42 1003.7
20260507214605 58 246 2.0 6.0 0.00 0.32 0.12 41 1003.8
20260507213053 60 34 3.0 9.0 0.00 0.32 0.12 38 1003.5
20260507211546 61 300 2.0 10.0 0.00 0.32 0.12 38 1003.6
20260507210053 61 134 3.0 7.0 0.00 0.32 0.12 38 1003.3
20260507204546 61 57 3.0 10.0 0.00 0.41 0.12 41 1003.2
20260507203052 63 331 5.0 14.0 0.00 0.41 0.12 40 1003.2
20260507201554 62 266 3.0 10.0 0.00 0.41 0.12 40 1003.1
20260507200044 62 286 3.0 16.0 0.00 0.41 0.12 44 1003.0
20260507194609 62 315 5.0 14.0 0.00 0.62 0.12 46 1003.2
20260507193049 63 90 1.0 12.0 0.00 0.62 0.12 48 1003.0
20260507191550 64 340 4.0 12.0 0.00 0.62 0.12 52 1003.1
20260507190046 63 324 2.0 12.0 0.00 0.62 0.12 52 1003.0
20260507184545 62 313 4.0 12.0 0.00 0.65 0.12 52 1003.0
20260507183040 63 279 2.0 7.0 0.00 0.65 0.12 47 1003.1
20260507181547 64 269 3.0 9.0 0.00 0.65 0.12 47 1003.2
20260507180046 63 342 1.0 8.0 0.00 0.65 0.12 57 1003.6
20260507174549 64 306 2.0 6.0 0.00 0.65 0.12 48 1003.6
20260507173044 63 327 1.0 5.0 0.00 0.65 0.12 49 1003.7
20260507171547 64 226 2.0 11.0 0.00 0.65 0.12 46 1003.8
20260507170047 65 340 1.0 8.0 0.00 0.65 0.12 53 1003.9
20260507164549 63 237 2.0 8.0 0.00 0.65 0.12 52 1003.9
20260507163050 64 267 1.0 9.0 0.00 0.65 0.12 50 1004.4
20260507161549 62 226 3.0 10.0 0.00 0.65 0.12 52 1004.4
20260507160044 63 246 2.0 8.0 0.00 0.65 0.12 55 1004.7
20260507154549 63 285 2.0 8.0 0.00 0.65 0.12 54 1004.8
20260507153045 62 286 3.0 9.0 0.00 0.65 0.12 58 1005.1
20260507151549 62 220 3.0 8.0 0.00 0.65 0.12 61 1005.1
20260507150056 63 349 3.0 8.0 0.00 0.65 0.12 59 1005.2
20260507144549 62 186 2.0 7.0 0.00 0.65 0.12 61 1005.4
20260507143046 61 229 3.0 7.0 0.00 0.65 0.12 62 1005.5
20260507141548 61 76 2.0 9.0 0.00 0.65 0.12 61 1005.6
20260507140054 60 263 2.0 7.0 0.00 0.65 0.12 63 1005.7
20260507134543 59 0 1.0 7.0 0.00 0.65 0.12 68 1005.9
20260507133047 58 246 2.0 5.0 0.00 0.65 0.12 68 1005.8
20260507131608 57 112 1.0 7.0 0.00 0.65 0.12 69 1005.8
20260507130046 56 349 1.0 8.0 0.00 0.65 0.12 70 1006.0
20260507124552 56 51 2.0 7.0 0.00 0.65 0.12 73 1006.2
20260507123044 56 352 1.0 8.0 0.00 0.65 0.12 74 1006.0
20260507121546 54 268 1.0 4.0 0.00 0.65 0.12 74 1006.2
20260507120046 53 0 0.0 3.0 0.00 0.65 0.12 77 1006.4
20260507114547 51 298 0.0 3.0 0.00 0.65 0.12 84 1006.5
20260507113048 48 275 1.0 4.0 0.00 0.65 0.12 90 1006.5
20260507111547 47 0 0.0 4.0 0.00 0.65 0.12 94 1006.5
20260507110047 46 0 0.0 0.0 0.00 0.65 0.12 98 1006.8
20260507104548 45 0 0.0 0.0 0.00 0.65 0.12 97 1006.8
20260507103045 45 0 0.0 0.0 0.00 0.65 0.12 96 1006.7
20260507101554 45 0 0.0 0.0 0.00 0.65 0.12 96 1006.6
20260507100045 45 0 0.0 0.0 0.00 0.65 0.12 96 1005.8
20260507094548 45 0 0.0 0.0 0.00 0.65 0.12 95 1005.4
20260507093052 45 0 0.0 0.0 0.00 0.65 0.12 96 1005.9
20260507091544 46 0 0.0 1.0 0.00 0.65 0.12 96 1005.9
20260507090041 46 0 1.0 2.0 0.00 0.65 0.12 96 1006.4
20260507084551 47 0 0.0 2.0 0.01 0.65 0.12 96 1006.0
20260507083046 47 321 0.0 3.0 0.01 0.65 0.12 95 1005.9
20260507081545 48 0 1.0 3.0 0.01 0.65 0.12 95 1005.7
20260507080045 48 9 1.0 6.0 0.01 0.65 0.12 96 1005.4
20260507074542 49 0 0.0 2.0 0.00 0.64 0.11 97 1005.6
20260507073048 49 0 0.0 2.0 0.00 0.64 0.11 97 1005.6
20260507071604 49 32 0.0 3.0 0.00 0.64 0.11 96 1005.2
20260507070046 49 0 0.0 3.0 0.00 0.64 0.11 96 1005.3
20260507064545 50 304 1.0 5.0 0.00 0.64 0.11 96 1004.8
20260507063045 50 0 1.0 3.0 0.00 0.64 0.11 97 1004.8
20260507061555 50 0 0.0 0.0 0.00 0.64 0.11 97 1004.6
20260507060049 50 0 0.0 0.0 0.01 0.64 0.11 97 1004.1
20260507054546 50 0 0.0 2.0 0.04 0.64 0.11 97 1004.4
20260507053111 50 0 0.0 2.0 0.08 0.64 0.11 97 1004.5
20260507051550 50 319 0.0 4.0 0.10 0.64 0.11 96 1004.8
20260507050048 51 294 0.0 4.0 0.10 0.63 0.10 96 1004.6
20260507044547 51 19 1.0 10.0 0.06 0.58 0.06 96 1004.9
20260507043047 52 0 3.0 8.0 0.04 0.56 0.03 96 1004.7
20260507041547 52 64 2.0 7.0 0.05 0.54 0.01 96 1004.3
20260507040046 53 54 2.0 7.0 0.04 0.52 0.00 98 1004.4